Location: *
(44.3925°N, 5.4708°E)
Time: 03:33:42
(UTC+00:00)

Cosmos 2154 Rocket - Pass Details

Date: 18 September 2019
Orbit: 965 x 997 km, 82.9° (Epoch: 18 October)

Event Time Altitude Azimuth Distance (km) Brightness Sun altitude
Rises 18:43:46 0° 353° (N) 3,666 7.3 -11.4°
Reaches altitude 10° 18:46:18 10° 355° (N) 2,715 6.6 -11.8°
Maximum altitude 18:52:31 75° 81° (E) 1,002 3.9 -12.9°
Drops below altitude 10° 18:58:41 10° 167° (SSE) 2,702 6.0 -14.0°
Sets 19:01:12 0° 169° (S) 3,647 6.7 -14.4°
